Location: Arclight Observatory
(36.5667°N, 87.3333°W)
Time: 00:35:53
(UTC-05:00)

ISS - Visible Passes

Search period start: 25 October 2014 00:00
Search period end: 03 November 2014 23:00
Orbit: 412 x 416 km, 51.6° (Epoch: 24 October)

Date Brightness Start Highest point End Pass type
(mag) Time Alt. Az. Time Alt. Az. Time Alt. Az.
25 Oct -3.4 19:26:30 10° NW 19:29:51 83° NE 19:30:14 67° ESE visible
26 Oct -2.8 18:37:23 10° NW 18:40:35 43° NE 18:43:41 11° ESE visible
26 Oct -0.4 20:14:53 10° W 20:16:35 16° WSW 20:16:35 16° WSW visible
27 Oct -1.4 19:24:56 10° WNW 19:27:53 30° SW 19:30:16 14° S visible
28 Oct -2.7 18:35:23 10° NW 18:38:41 59° SW 18:41:57 10° SE visible
30 Oct -0.3 18:33:59 10° W 18:36:23 19° SW 18:38:47 10° S visible
